TGL25C LSGG-LFPG

Flight info

Callsign TGL25C
Flight time N/A
Altitude 27000
Route DIPIR T37 IBABA DCT DJL DCT TINIL
Aircraft A320/M-SDE3FGHIRWY/LB1

Departure

Time N/A
Airport Geneva International Airport (LSGG)

Arrival

Time 2026-05-05 18:28
Airport Charles de Gaulle International Airport (LFPG)
Time Latitude Longitude Altitude Speed Heading
2026-05-05 17:40 46.56154 5.68071 19661 ft 401 kts 328°
2026-05-05 17:40 46.58608 5.66083 20148 ft 405 kts 328°
2026-05-05 17:40 46.61050 5.64096 20623 ft 408 kts 327°
2026-05-05 17:40 46.63523 5.62079 21092 ft 411 kts 327°
2026-05-05 17:41 46.66025 5.60036 21562 ft 414 kts 327°
2026-05-05 17:41 46.68552 5.57971 22057 ft 418 kts 327°
2026-05-05 17:41 46.71093 5.55887 22511 ft 421 kts 327°
2026-05-05 17:41 46.73651 5.53777 22943 ft 424 kts 327°
2026-05-05 17:42 46.76223 5.51646 23373 ft 427 kts 327°
2026-05-05 17:42 46.78815 5.49490 23744 ft 430 kts 327°
2026-05-05 17:42 46.81426 5.47318 24101 ft 433 kts 327°
2026-05-05 17:42 46.84052 5.45133 24460 ft 436 kts 327°
2026-05-05 17:43 46.86693 5.42933 24802 ft 438 kts 327°
2026-05-05 17:43 46.89353 5.40722 25143 ft 441 kts 327°
2026-05-05 17:43 46.92037 5.38515 25477 ft 444 kts 327°
2026-05-05 17:43 46.94744 5.36308 25816 ft 447 kts 328°
2026-05-05 17:44 46.97473 5.34093 26159 ft 450 kts 328°
2026-05-05 17:44 47.00218 5.31867 26522 ft 452 kts 328°
2026-05-05 17:44 47.02941 5.29646 26853 ft 455 kts 328°
2026-05-05 17:44 47.05711 5.27377 27191 ft 457 kts 328°
2026-05-05 17:45 47.08502 5.25090 27488 ft 460 kts 328°
2026-05-05 17:45 47.11303 5.22787 27801 ft 463 kts 328°
2026-05-05 17:45 47.14116 5.20464 28106 ft 466 kts 328°
2026-05-05 17:45 47.16947 5.18118 28406 ft 468 kts 328°
2026-05-05 17:46 47.19789 5.15762 28692 ft 470 kts 328°
2026-05-05 17:46 47.22653 5.13418 28968 ft 473 kts 331°
2026-05-05 17:46 47.25691 5.11507 29234 ft 477 kts 340°
2026-05-05 17:46 47.28916 5.10273 29487 ft 481 kts 349°
2026-05-05 17:47 47.32251 5.09757 29740 ft 484 kts 359°
2026-05-05 17:47 47.35626 5.09753 30002 ft 486 kts
2026-05-05 17:47 47.39002 5.09779 30309 ft 485 kts
2026-05-05 17:47 47.42376 5.09804 30656 ft 484 kts
2026-05-05 17:48 47.45738 5.09822 31004 ft 483 kts 360°
2026-05-05 17:48 47.49096 5.09834 31348 ft 482 kts
2026-05-05 17:48 47.52446 5.09811 31719 ft 480 kts 356°
2026-05-05 17:48 47.55748 5.09190 32074 ft 478 kts 346°
2026-05-05 17:49 47.58913 5.07770 32413 ft 474 kts 336°
2026-05-05 17:49 47.61870 5.05629 32588 ft 472 kts 326°
2026-05-05 17:49 47.64493 5.02877 32648 ft 467 kts 317°
2026-05-05 17:49 47.66971 4.99755 32185 ft 468 kts 317°
2026-05-05 17:50 47.69457 4.96620 31393 ft 469 kts 317°
2026-05-05 17:50 47.71934 4.93500 30754 ft 466 kts 318°
2026-05-05 17:50 47.74399 4.90396 30137 ft 463 kts 318°
2026-05-05 17:50 47.76840 4.87308 29464 ft 460 kts 318°
2026-05-05 17:51 47.79268 4.84227 28754 ft 457 kts 318°
2026-05-05 17:51 47.81680 4.81167 28061 ft 455 kts 318°
2026-05-05 17:51 47.84084 4.78114 27382 ft 452 kts 318°
2026-05-05 17:51 47.86469 4.75085 26719 ft 449 kts 318°
2026-05-05 17:52 47.88838 4.72069 26080 ft 446 kts 318°
2026-05-05 17:52 47.91188 4.69071 25453 ft 443 kts 318°
2026-05-05 17:52 47.93516 4.66093 24838 ft 439 kts 318°
2026-05-05 17:52 47.95825 4.63134 24240 ft 436 kts 319°
2026-05-05 17:53 47.98120 4.60195 23632 ft 433 kts 318°
2026-05-05 17:53 48.00397 4.57276 22995 ft 430 kts 318°
2026-05-05 17:53 48.02653 4.54377 22309 ft 427 kts 318°
2026-05-05 17:53 48.04903 4.51486 21637 ft 425 kts 318°
2026-05-05 17:54 48.07138 4.48614 20976 ft 423 kts 318°
2026-05-05 17:54 48.09359 4.45759 20334 ft 420 kts 317°
2026-05-05 17:54 48.11571 4.42912 19711 ft 418 kts 317°
2026-05-05 17:54 48.13765 4.40080 19089 ft 415 kts 317°
2026-05-05 17:55 48.15918 4.37300 18487 ft 413 kts 317°
2026-05-05 17:55 48.18085 4.34496 17864 ft 411 kts 316°
2026-05-05 17:55 48.20241 4.31696 17200 ft 409 kts 316°
2026-05-05 17:55 48.22384 4.28901 16542 ft 407 kts 316°
2026-05-05 17:56 48.24512 4.26126 15933 ft 404 kts 316°
2026-05-05 17:56 48.26535 4.23288 15660 ft 391 kts 309°
2026-05-05 17:56 48.28256 4.20215 15407 ft 379 kts 306°
2026-05-05 17:56 48.29913 4.17208 15157 ft 369 kts 306°
2026-05-05 17:57 48.31533 4.14268 14912 ft 360 kts 306°
2026-05-05 17:57 48.33103 4.11413 14789 ft 348 kts 306°
2026-05-05 17:57 48.34607 4.08674 14806 ft 332 kts 306°
2026-05-05 17:57 48.36044 4.06050 14810 ft 319 kts 306°
2026-05-05 17:58 48.37438 4.03498 14814 ft 314 kts 306°
2026-05-05 17:58 48.38824 4.00956 14811 ft 313 kts 306°
2026-05-05 17:58 48.40203 3.98420 14810 ft 313 kts 306°
2026-05-05 17:58 48.41583 3.95882 14700 ft 314 kts 306°
2026-05-05 17:59 48.42969 3.93335 14289 ft 315 kts 306°
2026-05-05 17:59 48.44354 3.90790 13951 ft 314 kts 306°
2026-05-05 17:59 48.45733 3.88257 13671 ft 311 kts 306°
2026-05-05 17:59 48.47104 3.85731 13294 ft 311 kts 306°
2026-05-05 18:00 48.48465 3.83223 12983 ft 308 kts 306°
2026-05-05 18:00 48.49801 3.80761 12676 ft 306 kts 306°
2026-05-05 18:00 48.51142 3.78285 12368 ft 303 kts 306°
2026-05-05 18:00 48.52467 3.75836 12091 ft 300 kts 306°
2026-05-05 18:01 48.53779 3.73398 11813 ft 297 kts 303°
2026-05-05 18:01 48.54911 3.70825 11681 ft 294 kts 299°
2026-05-05 18:01 48.56021 3.68233 11574 ft 294 kts 299°
2026-05-05 18:01 48.57136 3.65643 11457 ft 294 kts 300°
2026-05-05 18:02 48.58248 3.63060 11351 ft 293 kts 300°
2026-05-05 18:02 48.59358 3.60482 11243 ft 293 kts 300°
2026-05-05 18:02 48.60467 3.57901 11110 ft 292 kts 300°
2026-05-05 18:02 48.61572 3.55324 11008 ft 292 kts 300°
2026-05-05 18:03 48.62678 3.52749 10891 ft 292 kts 300°
2026-05-05 18:03 48.63782 3.50181 10772 ft 291 kts 300°
2026-05-05 18:03 48.64882 3.47614 10663 ft 291 kts 300°
2026-05-05 18:03 48.65982 3.45043 10548 ft 291 kts 300°
2026-05-05 18:04 48.67080 3.42469 10430 ft 291 kts 300°
2026-05-05 18:04 48.68175 3.39900 10319 ft 290 kts 300°
2026-05-05 18:04 48.69266 3.37336 10213 ft 290 kts 300°
2026-05-05 18:04 48.70357 3.34771 10087 ft 289 kts 301°
2026-05-05 18:05 48.71447 3.32209 9979 ft 289 kts 300°
2026-05-05 18:05 48.72534 3.29650 9865 ft 289 kts 300°
2026-05-05 18:05 48.73618 3.27097 9751 ft 288 kts 300°
2026-05-05 18:05 48.74702 3.24537 9637 ft 288 kts 300°
2026-05-05 18:06 48.75769 3.22016 9515 ft 288 kts 300°
2026-05-05 18:06 48.76134 3.21152 9482 ft 288 kts 300°
2026-05-05 18:06 48.77939 3.16883 9289 ft 287 kts 301°
2026-05-05 18:06 48.79016 3.14339 9185 ft 286 kts 301°
2026-05-05 18:07 48.80075 3.11830 9067 ft 286 kts 301°
2026-05-05 18:07 48.81145 3.09285 8950 ft 286 kts 301°
2026-05-05 18:07 48.82214 3.06740 8840 ft 285 kts 301°
2026-05-05 18:07 48.83281 3.04199 8732 ft 287 kts 302°
2026-05-05 18:08 48.84360 3.01629 8610 ft 290 kts 301°
2026-05-05 18:08 48.85439 2.99035 8473 ft 289 kts 301°
2026-05-05 18:08 48.86499 2.96458 8350 ft 287 kts 301°
2026-05-05 18:08 48.87578 2.93914 8214 ft 286 kts 309°
2026-05-05 18:09 48.89026 2.91861 8097 ft 285 kts 320°
2026-05-05 18:09 48.90560 2.89944 7956 ft 286 kts 320°
2026-05-05 18:09 48.92095 2.88031 7836 ft 286 kts 320°
2026-05-05 18:09 48.93625 2.86103 7709 ft 285 kts 318°
2026-05-05 18:10 48.95021 2.83980 7584 ft 284 kts 314°
2026-05-05 18:10 48.96395 2.81811 7459 ft 284 kts 314°
2026-05-05 18:10 48.97764 2.79653 7346 ft 283 kts 314°
2026-05-05 18:10 48.99130 2.77500 7220 ft 282 kts 314°
2026-05-05 18:11 49.00491 2.75356 7094 ft 281 kts 314°
2026-05-05 18:11 49.01843 2.73221 6972 ft 280 kts 314°
2026-05-05 18:11 49.03194 2.71083 6845 ft 280 kts 314°
2026-05-05 18:11 49.04538 2.68951 6729 ft 278 kts 314°
2026-05-05 18:12 49.05876 2.66824 6595 ft 277 kts 315°
2026-05-05 18:12 49.07207 2.64711 6480 ft 276 kts 315°
2026-05-05 18:12 49.08528 2.62609 6354 ft 273 kts 315°
2026-05-05 18:12 49.09652 2.60284 6229 ft 274 kts 302°
2026-05-05 18:13 49.10405 2.57602 6102 ft 276 kts 288°
2026-05-05 18:13 49.10734 2.54704 5970 ft 278 kts 274°
2026-05-05 18:13 49.10700 2.51751 5886 ft 279 kts 270°
2026-05-05 18:13 49.10640 2.48789 5741 ft 279 kts 270°
2026-05-05 18:14 49.10582 2.45829 5579 ft 279 kts 269°
2026-05-05 18:14 49.10525 2.42882 5426 ft 277 kts 270°
2026-05-05 18:14 49.10473 2.39981 5275 ft 278 kts 270°
2026-05-05 18:14 49.10422 2.37041 5123 ft 277 kts 270°
2026-05-05 18:15 49.10369 2.34112 4969 ft 276 kts 270°
2026-05-05 18:15 49.10315 2.31191 4819 ft 276 kts 270°
2026-05-05 18:15 49.10260 2.28266 4669 ft 275 kts 270°
2026-05-05 18:15 49.10202 2.25351 4513 ft 274 kts 270°
2026-05-05 18:16 49.10143 2.22443 4357 ft 274 kts 270°
2026-05-05 18:16 49.09995 2.19562 4185 ft 269 kts 262°
2026-05-05 18:16 49.09790 2.17700 4097 ft 260 kts 265°
2026-05-05 18:16 49.09514 2.14198 3999 ft 242 kts 267°
2026-05-05 18:17 49.09385 2.12523 4005 ft 239 kts 267°
2026-05-05 18:17 49.09192 2.10003 4006 ft 240 kts 267°
2026-05-05 18:17 49.09023 2.07473 4006 ft 239 kts 269°
2026-05-05 18:17 49.08882 2.04949 4006 ft 238 kts 269°
2026-05-05 18:18 49.08742 2.02431 4008 ft 239 kts 269°
2026-05-05 18:18 49.08602 1.99902 4008 ft 239 kts 269°
2026-05-05 18:18 49.08449 1.97371 4008 ft 240 kts 263°
2026-05-05 18:18 49.07843 1.95067 4003 ft 231 kts 236°
2026-05-05 18:19 49.06687 1.93464 4004 ft 223 kts 207°
2026-05-05 18:19 49.05236 1.92796 4005 ft 216 kts 181°
2026-05-05 18:19 49.03773 1.93111 4005 ft 212 kts 155°
2026-05-05 18:19 49.02546 1.94279 4008 ft 207 kts 130°
2026-05-05 18:20 49.01749 1.96042 4004 ft 200 kts 107°
2026-05-05 18:20 49.01467 1.98076 4006 ft 195 kts 87°
2026-05-05 18:20 49.01435 2.00145 4011 ft 196 kts 88°
2026-05-05 18:20 49.01394 2.02217 4006 ft 196 kts 88°
2026-05-05 18:21 49.01349 2.04292 4005 ft 196 kts 88°
2026-05-05 18:21 49.01305 2.06371 4004 ft 196 kts 88°
2026-05-05 18:21 49.01259 2.08446 4009 ft 196 kts 88°
2026-05-05 18:21 49.01214 2.10515 4005 ft 195 kts 88°
2026-05-05 18:22 49.01169 2.12584 4011 ft 196 kts 88°
2026-05-05 18:22 49.01124 2.14651 4008 ft 195 kts 88°
2026-05-05 18:22 49.01077 2.16721 4009 ft 195 kts 88°
2026-05-05 18:22 49.01032 2.18787 4008 ft 195 kts 88°
2026-05-05 18:23 49.00980 2.20847 4014 ft 196 kts 91°
2026-05-05 18:23 49.00915 2.22924 4008 ft 196 kts 86°
2026-05-05 18:23 49.00968 2.24995 3917 ft 196 kts 83°
2026-05-05 18:23 49.01070 2.27066 3705 ft 196 kts 81°
2026-05-05 18:24 49.01183 2.29123 3461 ft 195 kts 82°
2026-05-05 18:24 49.01298 2.31190 3204 ft 196 kts 81°
2026-05-05 18:24 49.01416 2.33283 2943 ft 200 kts 82°
2026-05-05 18:24 49.01534 2.35407 2657 ft 201 kts 81°
2026-05-05 18:25 49.01651 2.37514 2389 ft 198 kts 81°
2026-05-05 18:25 49.01727 2.38897 2215 ft 199 kts 81°
2026-05-05 18:25 49.01879 2.41661 1868 ft 187 kts 81°
2026-05-05 18:25 49.01980 2.43544 1626 ft 168 kts 80°
2026-05-05 18:26 49.02069 2.45186 1401 ft 146 kts 80°
2026-05-05 18:26 49.02152 2.46675 1198 ft 139 kts 81°
2026-05-05 18:26 49.02233 2.48139 1004 ft 138 kts 82°
2026-05-05 18:26 49.02313 2.49587 813 ft 136 kts 81°
2026-05-05 18:27 49.02391 2.51030 619 ft 138 kts 81°
2026-05-05 18:27 49.02462 2.52480 414 ft 136 kts 82°
2026-05-05 18:27 49.02542 2.53855 362 ft 120 kts 81°
2026-05-05 18:27 49.02606 2.54873 359 ft 72 kts 84°
2026-05-05 18:28 49.02631 2.55735 356 ft 22 kts 96°
2026-05-05 18:28 49.02578 2.55903 359 ft 16 kts 140°
2026-05-05 18:28 49.02526 2.55939 355 ft 4 kts 168°
2026-05-05 18:29 49.02513 2.55942 354 ft 1 kts 171°
2026-05-05 18:29 49.02467 2.55950 354 ft 9 kts 175°
2026-05-05 18:29 49.02423 2.55955 354 ft 4 kts 176°
2026-05-05 18:29 49.02382 2.55960 354 ft 10 kts 176°
2026-05-05 18:30 49.02294 2.55970 358 ft 13 kts 175°
2026-05-05 18:30 49.02223 2.55978 358 ft 8 kts 175°
2026-05-05 18:30 49.02180 2.55983 354 ft 4 kts 175°
2026-05-05 18:30 49.02136 2.55981 354 ft 8 kts 193°
2026-05-05 18:31 49.02088 2.55906 356 ft 12 kts 252°
2026-05-05 18:31 49.02079 2.55796 360 ft 9 kts 265°
2026-05-05 18:31 49.02075 2.55721 362 ft 9 kts 264°
2026-05-05 18:31 49.02069 2.55562 354 ft 19 kts 267°
2026-05-05 18:32 49.02055 2.55357 354 ft 19 kts 266°
2026-05-05 18:32 49.02046 2.55164 363 ft 14 kts 267°
2026-05-05 18:32 49.02038 2.55020 354 ft 13 kts 261°
2026-05-05 18:32 49.02004 2.54890 358 ft 13 kts 232°
2026-05-05 18:33 49.01923 2.54848 354 ft 13 kts 178°
2026-05-05 18:33 49.01837 2.54855 357 ft 12 kts 177°
2026-05-05 18:33 49.01751 2.54864 354 ft 12 kts 176°
2026-05-05 18:33 49.01667 2.54876 354 ft 12 kts 175°
2026-05-05 18:34 49.01576 2.54887 362 ft 14 kts 174°
2026-05-05 18:34 49.01479 2.54903 354 ft 14 kts 175°
2026-05-05 18:34 49.01386 2.54927 361 ft 13 kts 164°
2026-05-05 18:34 49.01299 2.54963 356 ft 13 kts 165°
2026-05-05 18:35 49.01214 2.54995 354 ft 12 kts 164°
2026-05-05 18:35 49.01131 2.55033 358 ft 13 kts 163°
2026-05-05 18:35 49.01043 2.55071 354 ft 13 kts 165°
2026-05-05 18:35 49.00950 2.55110 354 ft 14 kts 164°
2026-05-05 18:36 49.00855 2.55151 359 ft 14 kts 164°
2026-05-05 18:36 49.00766 2.55191 354 ft 13 kts 163°
2026-05-05 18:36 49.00695 2.55251 359 ft 11 kts 111°
2026-05-05 18:36 49.00718 2.55358 358 ft 11 kts 70°
2026-05-05 18:37 49.00730 2.55480 354 ft 12 kts 83°
2026-05-05 18:37 49.00740 2.55619 362 ft 14 kts 83°
2026-05-05 18:37 49.00753 2.55776 359 ft 16 kts 81°
2026-05-05 18:37 49.00766 2.55956 362 ft 18 kts 86°
2026-05-05 18:38 49.00786 2.56161 354 ft 20 kts 77°
2026-05-05 18:38 49.00808 2.56370 354 ft 18 kts 82°
2026-05-05 18:38 49.00824 2.56562 358 ft 19 kts 84°
2026-05-05 18:38 49.00835 2.56759 354 ft 19 kts 85°
2026-05-05 18:39 49.00846 2.56952 354 ft 18 kts 85°
2026-05-05 18:39 49.00853 2.57086 363 ft 9 kts 85°
2026-05-05 18:39 49.00850 2.57164 362 ft 5 kts 109°
2026-05-05 18:39 49.00831 2.57195 362 ft 4 kts 145°
2026-05-05 18:40 49.00804 2.57210 356 ft 5 kts 165°
2026-05-05 18:40 49.00762 2.57223 354 ft 8 kts 171°
2026-05-05 18:40 49.00704 2.57216 357 ft 9 kts 217°
2026-05-05 18:40 49.00678 2.57134 361 ft 8 kts 251°
2026-05-05 18:41 49.00664 2.57058 362 ft 7 kts 255°
2026-05-05 18:41 49.00651 2.56982 356 ft 7 kts 251°
2026-05-05 18:41 49.00635 2.56921 362 ft 5 kts 246°
2026-05-05 18:41 49.00614 2.56888 359 ft 4 kts 213°
2026-05-05 18:42 49.00595 2.56871 359 ft 3 kts 211°
2026-05-05 18:42 49.00579 2.56858 356 ft 2 kts 207°
2026-05-05 18:42 49.00568 2.56849 357 ft 2 kts 207°
2026-05-05 18:42 49.00565 2.56847 362 ft 1 kts 207°
2026-05-05 18:43 49.00561 2.56844 360 ft 1 kts 206°
2026-05-05 18:43 49.00560 2.56843 354 ft 0 kts 206°